Flag for Spain Weather past 2 weeks in Madrid, Spain

Now
75 °F

Scattered clouds.


Feels Like: 77 °F
Forecast: 64 / 73 °F
Wind: 14 mph from Southwest

Location: Madrid / Cuatro Vientos

Current Time: Sep 16, 2014 at 8:22:36 PM

Latest Report: Sep 16, 2014 at 8:00 PM


Visibility: N/A

Pressure: 29.77 "Hg

Humidity: 34%

Dew point: 45 °F

Location of MadridLocation

Historic Weather in Madrid — Graph

°F

Madrid temperature yesterday

Maximum temperature yesterday: 81 °F (at 6:00 PM)
Minimum temperature yesterday: 59 °F (at 7:00 AM)
Average temperature yesterday: 72 °F

Past Weeks' High & Low Weather Summary

 TemperatureHumidityPressure
High100 °F (Sep 2, 4:30 PM)82% (Sep 15, 7:00 AM)30.09 "Hg (Sep 15, 7:00 AM)
Low59 °F (Sep 15, 7:00 AM)12% (Sep 2, 4:00 PM)29.74 "Hg (Sep 16, 5:00 PM)
Average78 °F37%29.99 "Hg
* Reported Sep 1 7:00 PM — Sep 16 7:00 PM, Madrid, Weather by CustomWeather, © 2014

Note: Actual official high and low records may vary slightly from our data, if they occured in-between our weather recording intervals... More about our weather records

Advertising

Madrid weather history for previous 24 hours

 ConditionsComfort  
Time TempWeatherWind HumidityBarometerVisibility
7:00 PM
Sep 16
77 °FScattered clouds.16 mph30%29.74 "HgN/A
6:30 PM77 °FScattered clouds.17 mph28%29.74 "HgN/A
6:00 PM79 °FScattered clouds.20 mph24%29.74 "HgN/A
5:30 PM79 °FScattered clouds.15 mph23%29.74 "HgN/A
5:00 PM81 °FScattered clouds.9 mph18%29.74 "HgN/A
4:30 PM81 °FScattered clouds.9 mph18%29.77 "HgN/A
4:00 PM79 °FScattered clouds.10 mph18%29.77 "HgN/A
3:30 PM81 °FPassing clouds.13 mph18%29.80 "HgN/A
3:00 PM79 °FPassing clouds.13 mph21%29.80 "HgN/A
2:30 PM79 °FPassing clouds.13 mph24%29.83 "HgN/A
1:30 PM81 °FPassing clouds.10 mph24%29.83 "HgN/A
1:00 PM79 °FPassing clouds.10 mph32%29.83 "HgN/A
12:30 PM79 °FPassing clouds.9 mph34%29.86 "HgN/A
12:00 PM73 °FPassing clouds.5 mph44%29.86 "HgN/A
11:30 AM75 °FPassing clouds.8 mph44%29.86 "HgN/A
11:00 AM72 °FPassing clouds.7 mph53%29.86 "HgN/A
10:30 AM70 °FPassing clouds.9 mph57%29.89 "HgN/A
10:00 AM68 °FPassing clouds.8 mph56%29.86 "HgN/A
9:30 AM68 °FPassing clouds.6 mph53%29.86 "HgN/A
9:00 AM64 °FPassing clouds.5 mph56%29.86 "HgN/A
8:30 AM64 °FClear.2 mph56%29.86 "Hg10 mi
8:00 AM63 °FClear.2 mph59%29.86 "Hg10 mi
7:30 AM63 °FClear.No wind59%29.86 "Hg10 mi
7:00 AM64 °FClear.2 mph56%29.86 "Hg10 mi
11:30 PM
Sep 15
70 °FClear.1 mph43%29.95 "Hg10 mi
11:00 PM70 °FClear.No wind43%29.95 "Hg10 mi
10:30 PM68 °FPassing clouds.No wind43%29.95 "HgN/A
10:00 PM70 °FPassing clouds.No wind40%29.95 "HgN/A
9:30 PM70 °FPassing clouds.1 mph40%29.95 "HgN/A
9:00 PM72 °FPassing clouds.5 mph36%29.95 "HgN/A
8:30 PM72 °FPassing clouds.5 mph36%29.95 "HgN/A
8:00 PM75 °FPassing clouds.3 mph31%29.95 "HgN/A
Weather by CustomWeather, © 2014

See weather overviewHow to use our weather pages